CZ-4C DEB (43270 NORAD) Tracking and Keplerian Element Data

This shows tracking and keplerian element data for the satellite.

Feedback or suggestion? Click here.




ElementValue
Catalog43270
NameCZ-4C DEB
Epoch Orbit1425
Epoch Day118.99453508
Epoch Year2018
RAAN194.7047
Inclination98.0347
Eccentricity0.0005898
Argument of Perigee154.9414
Mean Anonmoly205.2082
Mean Motion14.76115307
Decay Rate4.4E-07
L11 43270U 18031J 18118.99453508 .00000044 00000-0 13837-4 0 9995
L22 43270 98.0347 194.7047 0005898 154.9414 205.2082 14.76115307 14255

Live tracking and technical data element details for CZ-4C DEB (NORAD 43270). CZ-4C DEB can be tracked NOW for your location showing map with azimuth and elevation plus other details from your city location.

Track the satellite on the map from your city or location and see movement details for azimuth, elevation, latitude, longitude, range, height, and movement on the map or in text.







IsCatalogInMostPopularTable: catalog: 43270, numindb: 55
Update: records affected: 1



GetName: 43270 CZ-4C DEB

Hit Count: updated at: Tue, 13 Nov 2018 06:51:16 GMT